TimeMDT,TemperatureF,Dew PointF,Humidity,Sea Level PressureIn,VisibilityMPH,Wind Direction,Wind SpeedMPH,Gust SpeedMPH,PrecipitationIn,Events,Conditions,WindDirDegrees,DateUTC
12:15 AM,59.0,42.8,55,30.27,10.0,ENE,3.5,-,N/A,,Clear,60,2012-07-16 06:15:00
12:35 AM,57.2,41.0,55,30.27,10.0,East,4.6,-,N/A,,Clear,90,2012-07-16 06:35:00
12:55 AM,57.2,39.2,51,30.27,10.0,Calm,Calm,-,N/A,,Clear,0,2012-07-16 06:55:00
1:15 AM,57.2,39.2,51,30.27,10.0,SE,8.1,-,N/A,,Clear,130,2012-07-16 07:15:00
1:35 AM,55.4,39.2,54,30.26,10.0,SSE,4.6,-,N/A,,Clear,150,2012-07-16 07:35:00
1:55 AM,55.4,39.2,54,30.26,10.0,East,5.8,-,N/A,,Clear,90,2012-07-16 07:55:00
2:15 AM,55.4,41.0,58,30.25,10.0,East,5.8,-,N/A,,Clear,90,2012-07-16 08:15:00
2:35 AM,57.2,42.8,59,30.25,10.0,East,4.6,-,N/A,,Clear,80,2012-07-16 08:35:00
2:55 AM,55.4,39.2,54,30.24,10.0,Calm,Calm,-,N/A,,Clear,0,2012-07-16 08:55:00
3:15 AM,53.6,39.2,58,30.24,10.0,Calm,Calm,-,N/A,,Clear,0,2012-07-16 09:15:00
3:35 AM,50.0,37.4,62,30.24,10.0,North,6.9,-,N/A,,Clear,350,2012-07-16 09:35:00
3:55 AM,51.8,39.2,62,30.24,10.0,North,3.5,-,N/A,,Clear,360,2012-07-16 09:55:00
4:15 AM,51.8,39.2,62,30.24,10.0,Calm,Calm,-,N/A,,Clear,0,2012-07-16 10:15:00
4:35 AM,51.8,39.2,62,30.24,10.0,North,3.5,-,N/A,,Clear,350,2012-07-16 10:35:00
4:55 AM,53.6,39.2,58,30.25,10.0,Calm,Calm,-,N/A,,Clear,0,2012-07-16 10:55:00
5:15 AM,51.8,39.2,62,30.25,10.0,Calm,Calm,-,N/A,,Clear,0,2012-07-16 11:15:00
5:35 AM,51.8,37.4,58,30.26,10.0,East,4.6,-,N/A,,Clear,100,2012-07-16 11:35:00
5:55 AM,50.0,39.2,66,30.25,10.0,East,9.2,-,N/A,,Clear,100,2012-07-16 11:55:00
6:15 AM,51.8,39.2,62,30.27,10.0,East,3.5,-,N/A,,Clear,100,2012-07-16 12:15:00
6:35 AM,48.2,39.2,71,30.26,10.0,NNW,3.5,-,N/A,,Partly Cloudy,340,2012-07-16 12:35:00
6:55 AM,48.2,39.2,71,30.27,10.0,NW,5.8,-,N/A,,Clear,310,2012-07-16 12:55:00
7:15 AM,55.4,39.2,54,30.28,10.0,North,4.6,-,N/A,,Clear,360,2012-07-16 13:15:00
7:35 AM,57.2,42.8,59,30.28,10.0,North,4.6,-,N/A,,Scattered Clouds,10,2012-07-16 13:35:00
7:55 AM,60.8,42.8,52,30.28,10.0,Calm,Calm,-,N/A,,Partly Cloudy,0,2012-07-16 13:55:00
8:15 AM,64.4,42.8,45,30.28,10.0,Calm,Calm,-,N/A,,Clear,0,2012-07-16 14:15:00
8:35 AM,66.2,44.6,46,30.28,10.0,Calm,Calm,-,N/A,,Clear,0,2012-07-16 14:35:00
8:55 AM,66.2,44.6,46,30.28,10.0,SW,3.5,-,N/A,,Clear,230,2012-07-16 14:55:00
9:15 AM,69.8,44.6,40,30.27,10.0,East,3.5,-,N/A,,Clear,100,2012-07-16 15:15:00
9:35 AM,69.8,44.6,40,30.27,10.0,South,3.5,-,N/A,,Clear,190,2012-07-16 15:35:00
9:55 AM,71.6,44.6,38,30.27,10.0,SW,4.6,-,N/A,,Clear,230,2012-07-16 15:55:00
10:15 AM,73.4,44.6,36,30.26,10.0,Calm,Calm,-,N/A,,Clear,0,2012-07-16 16:15:00
10:35 AM,73.4,44.6,36,30.26,10.0,SSW,3.5,-,N/A,,Clear,200,2012-07-16 16:35:00
10:55 AM,75.2,44.6,34,30.26,10.0,SW,5.8,-,N/A,,Clear,230,2012-07-16 16:55:00
11:15 AM,78.8,44.6,30,30.25,10.0,West,5.8,-,N/A,,Clear,270,2012-07-16 17:15:00
11:35 AM,78.8,44.6,30,30.25,10.0,Calm,Calm,-,N/A,,Clear,0,2012-07-16 17:35:00
11:55 AM,78.8,42.8,28,30.24,10.0,SW,5.8,-,N/A,,Clear,230,2012-07-16 17:55:00
12:15 PM,80.6,44.6,28,30.22,10.0,WSW,6.9,16.1,N/A,,Clear,250,2012-07-16 18:15:00
12:35 PM,80.6,44.6,28,30.21,10.0,WNW,10.4,-,N/A,,Clear,290,2012-07-16 18:35:00
12:55 PM,82.4,44.6,26,30.20,10.0,WSW,6.9,-,N/A,,Clear,250,2012-07-16 18:55:00
1:15 PM,82.4,44.6,26,30.19,10.0,WSW,13.8,18.4,N/A,,Clear,250,2012-07-16 19:15:00
1:35 PM,82.4,44.6,26,30.19,10.0,West,16.1,21.9,N/A,,Clear,260,2012-07-16 19:35:00
1:55 PM,80.6,41.0,24,30.19,10.0,NNW,23.0,26.5,N/A,Thunderstorm,Scattered Clouds,330,2012-07-16 19:55:00
2:15 PM,75.2,42.8,31,30.19,10.0,NNW,12.7,-,N/A,,Scattered Clouds,340,2012-07-16 20:15:00
2:35 PM,75.2,42.8,31,30.18,10.0,North,15.0,23.0,N/A,,Partly Cloudy,10,2012-07-16 20:35:00
2:55 PM,75.2,42.8,31,30.17,10.0,NNE,15.0,20.7,N/A,Thunderstorm,Partly Cloudy,20,2012-07-16 20:55:00
3:15 PM,80.6,44.6,28,30.17,10.0,NW,13.8,23.0,N/A,,Partly Cloudy,310,2012-07-16 21:15:00
3:35 PM,75.2,44.6,34,30.18,10.0,NNW,16.1,-,N/A,,Partly Cloudy,330,2012-07-16 21:35:00
3:55 PM,73.4,42.8,33,30.19,10.0,NW,17.3,21.9,N/A,,Mostly Cloudy,310,2012-07-16 21:55:00
4:15 PM,64.4,50.0,59,30.18,10.0,NNW,13.8,17.3,N/A,,Overcast,340,2012-07-16 22:15:00
4:35 PM,68.0,46.4,46,30.17,10.0,NNW,11.5,-,N/A,,Overcast,340,2012-07-16 22:35:00
4:55 PM,69.8,46.4,43,30.18,10.0,North,13.8,-,N/A,,Overcast,350,2012-07-16 22:55:00
5:15 PM,71.6,46.4,41,30.17,10.0,NNW,11.5,17.3,N/A,,Overcast,340,2012-07-16 23:15:00
5:35 PM,71.6,42.8,35,30.16,10.0,North,13.8,19.6,N/A,,Overcast,360,2012-07-16 23:35:00
5:55 PM,73.4,42.8,33,30.16,10.0,NNW,16.1,20.7,N/A,,Mostly Cloudy,330,2012-07-16 23:55:00
6:15 PM,71.6,42.8,35,30.16,10.0,North,13.8,-,N/A,,Mostly Cloudy,350,2012-07-17 00:15:00
6:35 PM,71.6,41.0,33,30.15,10.0,North,15.0,19.6,N/A,,Mostly Cloudy,360,2012-07-17 00:35:00
6:55 PM,71.6,42.8,35,30.15,10.0,NE,11.5,20.7,N/A,,Overcast,50,2012-07-17 00:55:00
7:15 PM,71.6,42.8,35,30.15,10.0,ENE,8.1,-,N/A,,Overcast,60,2012-07-17 01:15:00
7:35 PM,69.8,42.8,38,30.17,10.0,North,16.1,19.6,N/A,,Overcast,350,2012-07-17 01:35:00
7:55 PM,68.0,44.6,43,30.17,10.0,NNW,12.7,18.4,N/A,,Scattered Clouds,340,2012-07-17 01:55:00
8:15 PM,68.0,42.8,40,30.17,10.0,NW,21.9,27.6,N/A,,Partly Cloudy,310,2012-07-17 02:15:00
8:35 PM,60.8,46.4,59,30.19,10.0,WNW,10.4,28.8,0.01,,Mostly Cloudy,290,2012-07-17 02:35:00
8:55 PM,62.6,48.2,59,30.20,10.0,West,11.5,16.1,0.01,,Overcast,280,2012-07-17 02:55:00
9:15 PM,64.4,46.4,52,30.19,10.0,SW,16.1,21.9,N/A,,Overcast,220,2012-07-17 03:15:00
9:35 PM,62.6,48.2,59,30.20,10.0,SW,11.5,-,N/A,,Overcast,220,2012-07-17 03:35:00
9:55 PM,62.6,48.2,59,30.22,10.0,SW,6.9,-,N/A,,Mostly Cloudy,220,2012-07-17 03:55:00
10:15 PM,62.6,48.2,59,30.23,10.0,Calm,Calm,-,N/A,,Partly Cloudy,0,2012-07-17 04:15:00
10:35 PM,62.6,48.2,59,30.23,10.0,East,4.6,-,N/A,,Clear,90,2012-07-17 04:35:00
10:55 PM,60.8,48.2,63,30.22,10.0,ENE,4.6,-,N/A,,Clear,60,2012-07-17 04:55:00
11:15 PM,60.8,46.4,59,30.22,10.0,Calm,Calm,-,N/A,,Clear,0,2012-07-17 05:15:00
11:35 PM,57.2,46.4,67,30.22,10.0,North,3.5,-,N/A,,Clear,360,2012-07-17 05:35:00
11:55 PM,57.2,44.6,63,30.21,10.0,North,4.6,-,N/A,,Clear,350,2012-07-17 05:55:00